Location: Ahausen
(50.4985°N, 8.2722°E)
Time: 01:21:34
(UTC+00:00)

Cosmos 2034 Rocket - Pass Details

Date: 18 September 2020
Orbit: 957 x 1002 km, 82.9° (Epoch: 23 October)

Event Time Altitude Azimuth Distance (km) Brightness Sun altitude
Rises 18:54:40 0° 172° (S) 3,713 6.8 -13.5°
Reaches altitude 10° 18:57:14 10° 169° (SSE) 2,767 6.1 -13.9°
Maximum altitude 19:03:25 57° 92° (E) 1,170 4.1 -14.8°
Drops below altitude 10° 19:09:37 10° 16° (NNE) 2,770 6.5 -15.7°
Sets 19:12:11 0° 13° (NNE) 3,718 7.2 -16.1°
